Regional Weather Roundup
Issued by NWS

Home | Current Version | Previous Version | Graphics & Text | Print | Product List | Glossary On
Versions: 1 2 3 4 5 6 7 8 9 10 11 12 13 14 15 16 17 18 19 20 21 22 23 24 25 26 27 28 29 30 31 32 33 34 35 36 37 38 39 40 41 42 43 44 45 46 47 48 49 50
000
ASUS45 KABQ 250110
RWRNM
WEATHER ROUNDUP FOR NEW MEXICO
NATIONAL WEATHER SERVICE ALBUQUERQUE NM
700 PM MDT FRI APR 24 2015

NOTE: "FAIR" MEANS FEW OR NO CLOUDS BELOW 12,000 FEET AGL WITH NO
       SIGNIFICANT WEATHER OR OBSTRUCTIONS TO VISION.

      THIS PRODUCT IS RELEASED AS TWO VERSIONS.  ONE VERSION NEAR
      THE TOP OF THE HOUR CONTAINING PRELIMINARY DATA FROM ALBUQUERQUE
      AND OTHER STATIONS.  A FINAL VERSION WITH ADDITIONAL DATA IS
      ISSUED ABOUT 10 MINUTES AFTER THE HOUR.

NMZ501-503-504-510>518-250200-
NORTHWEST PLATEAU/NORTHCENTRAL MOUNTAINS

CITY           SKY/WX    TMP DP  RH WIND       PRES   REMARKS
FARMINGTON     MOCLDY    56  34  43 E3        29.82S
LOS ALAMOS     MOCLDY    52  20  29 SW10G16   29.91R
SANTA FE       PTCLDY    56  17  21 W21G31    29.86R
TAOS           CLOUDY    45  23  42 W24       29.89R
ANGEL FIRE     FAIR      38  27  63 W21G33    29.87S WCI  28

$$
NMZ402-403-502-505>509-250200-
WESTCENTRAL MOUNTAINS/SOUTHWEST MOUNTAINS

CITY           SKY/WX    TMP DP  RH WIND       PRES   REMARKS
GALLUP         PTSUNNY   51  31  46 SW23G30   29.94R
GRANTS         CLOUDY    54  29  38 W17G30    29.94R
SILVER CITY      N/A     59  28  31 NW20      29.98S

$$
NMZ407-409-411-412-250200-
SOUTHERN DESERTS

CITY           SKY/WX    TMP DP  RH WIND       PRES   REMARKS
LORDSBURG      FAIR      64  28  25 W16G23    29.94R
DEMING         PTCLDY    67  27  22 W23G30    29.92R
LAS CRUCES     PTCLDY    67  25  20 W22G36    29.92R
HOLLOMAN AFB   CLEAR     69  26  19 SW24G30   29.85R
ALAMOGORDO     PTCLDY    68  23  18 W18       29.88R
T OR C         CLEAR     66  25  21 W20G26    29.88R

$$
NMZ519>523-250200-
CENTRAL VALLEYS/CENTRAL HIGHLANDS

CITY           SKY/WX    TMP DP  RH WIND       PRES   REMARKS
ALBUQUERQUE    MOCLDY    56  38  50 SE7       29.87S
DOUBLE EAGLE   MOCLDY    61  25  25 W14G28      N/A
MORIARTY ARPT  FAIR      52  26  37 W9        29.90S
CLINES CORNERS PTCLDY    49  27  42 W20       29.87F
BELEN          MOCLDY    58  39  48 CALM      29.87R
SOCORRO        FAIR      66  22  18 W10G20    29.84S

$$
NMZ524>526-539-540-250200-
SOUTHCENTRAL MOUNTAINS

CITY           SKY/WX    TMP DP  RH WIND       PRES   REMARKS
RUIDOSO        MOCLDY    54  23  30 SW15      29.94R

$$
NMZ527>531-250200-
NORTHEAST HIGHLANDS/NORTHEAST PLAINS

CITY           SKY/WX    TMP DP  RH WIND       PRES   REMARKS
LAS VEGAS      PTCLDY    52  18  26 W29G38    29.84R
RATON          MOCLDY    55  22  27 NW23G33   29.73R
CLAYTON        MOCLDY    64  30  27 NW13      29.62R

$$
NMZ532>537-250200-
EASTCENTRAL PLAINS

CITY           SKY/WX    TMP DP  RH WIND       PRES   REMARKS
TUCUMCARI      PTCLDY    69  15  12 W31G45    29.67R
CANNON AFB     CLEAR     65  28  25 W25G32    29.75R
CLOVIS AIRPORT CLEAR     64  25  22 W31G40    29.74R

$$
NMZ028-029-538-250200-
SOUTHEAST PLAINS

CITY           SKY/WX    TMP DP  RH WIND       PRES   REMARKS
ROSWELL        CLEAR     72  27  18 W14       29.78R
ARTESIA        CLEAR     72  25  17 SW23G31   29.81R
CARLSBAD       CLEAR     74  22  14 W25       29.81R
HOBBS          CLEAR     70  25  18 SW24G30   29.82R


$$


USA.gov is the U.S. government's official web portal to all federal, state and local government web resources and services.